Flag for Germany Weather past 2 weeks in Minden, North Rhine-Westphalia, Germany

Now
84 °F

Scattered clouds.


Feels Like: 83 °F
Forecast: 62 / 84 °F
Wind: 3 mph from Southeast

Location: Bueckeburg

Current Time: Aug 3, 2015 at 9:39:47 PM

Latest Report: Aug 3, 2015 at 8:20 PM


Visibility: N/A

Pressure: 29.95 "Hg

Humidity: 40%

Dew point: 57 °F

Location of MindenLocation

Historic Weather in Minden — Graph

°F

Minden temperature yesterday

Maximum temperature yesterday: 77 °F (at 4:20 PM)
Minimum temperature yesterday: 52 °F (at 5:20 AM)
Average temperature yesterday: 65 °F

Past Weeks' High & Low Weather Summary

 TemperatureHumidityPressure
High88 °F (Aug 3, 2:20 PM)100% (Jul 20, 11:20 PM)30.15 "Hg (Jul 20, 11:20 PM)
Low46 °F (Jul 31, 4:20 AM)26% (Aug 2, 4:20 PM)29.47 "Hg (Jul 25, 12:20 PM)
Average64 °F69%29.87 "Hg
* Reported Jul 19 8:20 PM — Aug 3 8:20 PM, Minden, Weather by CustomWeather, © 2015

Note: Actual official high and low records may vary slightly from our data, if they occured in-between our weather recording intervals... More about our weather records

Advertising

Minden weather history for previous 24 hours

 ConditionsComfort  
Time TempWeatherWind HumidityBarometerVisibility
8:20 PM
Mon, Aug 3
84 °FScattered clouds.3 mph40%29.95 "HgN/A
7:20 PM88 °FPassing clouds.5 mph33%29.95 "HgN/A
6:20 PM88 °FScattered clouds.6 mph31%29.95 "HgN/A
5:20 PM88 °FScattered clouds.9 mph31%29.95 "HgN/A
4:20 PM88 °FScattered clouds.10 mph29%29.98 "HgN/A
3:20 PM88 °FScattered clouds.10 mph29%29.98 "HgN/A
2:20 PM88 °FScattered clouds.9 mph27%29.98 "HgN/A
1:20 PM86 °FPassing clouds.9 mph31%30.01 "HgN/A
12:20 PM82 °FPassing clouds.9 mph40%30.01 "HgN/A
11:20 AM79 °FPassing clouds.13 mph45%30.01 "HgN/A
10:20 AM75 °FPassing clouds.13 mph47%30.01 "HgN/A
9:20 AM73 °FPassing clouds.15 mph47%30.01 "HgN/A
8:20 AM70 °FPassing clouds.15 mph50%30.01 "HgN/A
7:20 AM66 °FScattered clouds.10 mph52%30.01 "HgN/A
6:20 AM55 °FPassing clouds.2 mph77%30.04 "HgN/A
5:20 AM54 °FPassing clouds.1 mph82%30.04 "HgN/A
4:20 AM54 °FPassing clouds.1 mph82%30.07 "HgN/A
3:20 AM55 °FPassing clouds.1 mph77%30.07 "HgN/A
2:20 AM57 °FPassing clouds.2 mph77%30.07 "HgN/A
1:20 AM57 °FPassing clouds.No wind77%30.09 "HgN/A
12:20 AM57 °FPassing clouds.2 mph82%30.09 "HgN/A
11:20 PM
Sun, Aug 2
61 °FPassing clouds.1 mph68%30.09 "HgN/A
10:20 PM66 °FPassing clouds.1 mph52%30.09 "HgN/A
9:20 PM68 °FPartly sunny.2 mph49%30.09 "HgN/A
Weather by CustomWeather, © 2015

See weather overviewHow to use our weather pages